Location: Berlin
(52.5170°N, 13.3889°E)
Time: 22:48:39
(UTC+02:00)

LES 1 - Pass Details

Date: 24 June 2025
Orbit: 2779 x 2808 km, 32.1° (Epoch: 12 July)

Event Time Altitude Azimuth Distance (km) Brightness Sun altitude
Rises 22:11:15 0° 228° (SW) 6,570 12.3 -4.8°
Reaches altitude 10° 22:16:09 10° 218° (SW) 5,549 11.8 -5.3°
Maximum altitude 22:28:58 31° 164° (SSE) 4,073 10.7 -6.5°
Drops below altitude 10° 22:41:48 10° 109° (ESE) 5,558 11.4 -7.6°
Sets 22:46:41 0° 100° (E) 6,582 11.9 -8.0°
